Home > Weather > Bremerhaven > Past weeks

Flag for Germany Weather for the Past 2 Weeks in Bremerhaven, Bremen, Germany

Now
41 °F

Sprinkles. Broken clouds.


Feels Like: 34 °F
Forecast: 38 / 42 °F
Wind: 12 mph from Southwest

Location: Nordholz

Current Time: Feb 10, 2016 at 4:52:12 PM

Latest Report: Feb 10, 2016 at 4:20 PM


Visibility: 6 mi

Pressure: 29.21 "Hg

Humidity: 93%

Dew point: 39 °F

Location of BremerhavenLocation

Historic Weather in Bremerhaven — Graph

°F

Bremerhaven Temperature Yesterday

Maximum temperature yesterday: 45 °F (at 2:20 AM)
Minimum temperature yesterday: 36 °F (at 9:20 PM)
Average temperature yesterday: 41 °F

High & Low Weather Summary for the Past Weeks

 TemperatureHumidityPressure
High52 °F (Jan 27, 9:20 PM)100% (Jan 27, 1:20 AM)30.18 "Hg (Jan 27, 1:20 AM)
Low36 °F (Jan 30, 10:20 PM)66% (Feb 2, 10:20 AM)28.85 "Hg (Feb 9, 8:20 PM)
Average44 °F87%29.67 "Hg
* Reported Jan 26 3:20 PM — Feb 10 3:20 PM, Bremerhaven, Weather by CustomWeather, © 2016

Note: Actual official high and low records may vary slightly from our data, if they occured in-between our weather recording intervals... More about our weather records

Advertising

Bremerhaven Weather History for the Previous 24 Hours

 ConditionsComfort  
Time TempWeatherWind HumidityBarometerVisibility
3:20 PM
Wed, Feb 10
41 °FSprinkles. Broken clouds.12 mph87%29.18 "Hg5 mi
2:20 PM39 °FPartly sunny.13 mph93%29.18 "HgN/A
1:20 PM39 °FPartly sunny.14 mph87%29.18 "HgN/A
12:20 PM39 °FPartly sunny.14 mph93%29.18 "HgN/A
11:20 AM39 °FLow clouds.13 mph93%29.18 "Hg5 mi
10:20 AM37 °FLow clouds.12 mph93%29.15 "Hg4 mi
9:20 AM37 °FLow clouds.12 mph93%29.15 "Hg4 mi
8:20 AM36 °FPartly sunny.13 mph93%29.12 "HgN/A
7:20 AM36 °FPartly cloudy.14 mph93%29.12 "HgN/A
6:20 AM36 °FPassing clouds.15 mph93%29.09 "HgN/A
5:47 AM36 °FPassing clouds.15 mph93%29.12 "HgN/A
5:20 AM36 °FPassing clouds.15 mph93%29.09 "HgN/A
4:20 AM37 °FPassing clouds.15 mph93%29.09 "HgN/A
3:20 AM39 °FPassing clouds.14 mph87%29.06 "HgN/A
2:20 AM39 °FPartly cloudy.18 mph87%29.06 "HgN/A
1:20 AM39 °FRain. Passing clouds.22 mph81%29.03 "HgN/A
12:20 AM39 °FRain. Low clouds.20 mph87%29.00 "Hg5 mi
11:57 PM
Tue, Feb 9
37 °FRain. Low clouds.23 mph93%28.97 "Hg5 mi
11:20 PM37 °FRain. Overcast.22 mph93%28.94 "Hg5 mi
10:20 PM37 °FRain. Passing clouds.22 mph93%28.88 "Hg4 mi
9:20 PM36 °FRain. Low clouds.16 mph93%28.85 "Hg4 mi
8:20 PM39 °FRain. Passing clouds.16 mph93%28.85 "Hg4 mi
7:20 PM41 °FRain. Passing clouds.13 mph93%28.88 "Hg4 mi
6:20 PM41 °FLight rain. Passing clouds.8 mph93%28.91 "HgN/A
5:20 PM43 °FLight rain. Partly sunny.6 mph87%28.97 "Hg4 mi
4:20 PM43 °FBroken clouds.6 mph81%29.00 "HgN/A
Weather by CustomWeather, © 2016

See weather overviewHow to use our weather pages